Temp
18 18 18 18 18 17 17 17 17 17 17 17 17 17 17 18 18 18 18 18 18 17 16 16 15 14 14 13 13 12 12 12 12 11 11 11 11 12 12 12 12 12 12
18 18 18 18 18 18 18 17 17 17 17 17 17 17 17 17 18 18 18 18 18 17 16 15 15 14 14 14 13 13 12 12 11 11 11 11 11 11 11 11 12 12 12
18 18 18 18 18 18 17 17 17 17 17 17 17 17 17 17 17 17 17 17 17 17 17 16 15 15 14 14 14 13 12 12 12 11 11 11 11 11 11 11 11 11 11
18 18 18 18 18 17 17 17 17 17 17 17 17 18 18 17 17 17 17 17 17 17 17 16 16 15 15 14 14 14 13 12 12 11 11 11 11 11 11 11 11 11 11
18 18 18 18 18 18 18 18 17 17 17 17 18 18 17 17 17 17 17 17 17 17 17 17 16 16 15 14 14 15 14 13 12 12 11 11 11 10 10 10 10 10 11
19 18 18 18 18 18 18 18 17 17 17 17 16 16 17 17 17 17 17 17 17 17 17 17 16 15 15 14 14 14 14 14 13 12 12 11 11 10 10 11 10 10 10
19 18 18 18 18 18 18 18 17 17 16 17 14 15 17 17 17 17 17 17 17 16 16 16 16 15 15 14 14 13 14 14 14 12 12 11 11 11 11 10 11 10 10
17 17 17 17 17 17 17 17 17 15 15 16 15 13 16 17 17 17 18 18 17 16 16 16 15 15 15 14 14 14 13 14 14 14 12 11 11 11 11 11 11 11 11
17 17 16 16 16 16 16 16 16 15 14 15 15 15 14 16 14 17 17 17 17 17 17 16 16 15 15 14 14 14 13 13 13 14 14 12 12 11 11 11 11 11 11
17 16 16 16 16 15 16 16 16 15 15 14 14 14 14 14 13 13 15 16 16 16 15 15 15 15 15 14 13 13 13 13 13 13 13 12 11 10 11 11 10 10 10
16 16 15 15 15 15 15 14 14 15 15 14 14 14 13 12 11 11 12 14 14 15 14 14 14 14 14 14 13 13 12 12 12 12 12 12 11 10 11 9 10 9 10
14 14 14 14 14 14 13 13 13 13 13 14 14 14 14 13 12 9 10 10 11 12 13 13 12 12 12 12 11 11 11 11 11 11 11 11 11 10 10 9 9 9 9
13 13 13 13 13 13 13 12 12 13 13 13 13 13 13 13 12 12 11 11 10 10 11 12 11 11 11 11 10 10 9 9 9 9 10 11 11 10 9 9 9 9 9
11 11 11 12 12 12 12 12 12 13 13 13 13 12 12 12 12 12 11 10 10 9 9 10 10 10 10 10 10 9 9 9 8 7 8 9 10 10 9 8 9 8 7
10 10 10 10 10 11 11 11 11 12 12 12 12 12 12 11 11 11 10 10 10 10 9 9 9 9 9 9 9 9 8 8 7 6 6 7 8 8 8 8 7 7 6
9 9 9 9 9 9 10 9 9 10 11 11 10 10 10 9 9 9 9 9 8 8 8 7 7 7 7 6 6 6 6 6 5 5 5 6 7 7 8 6 6 5 5
8 8 8 8 8 8 8 8 8 8 8 9 8 8 8 8 8 8 8 8 7 6 7 5 5 4 4 5 4 4 4 4 4 4 5 5 5 5 5 5 5 4 5
7 7 6 7 7 7 7 7 7 7 7 7 6 7 7 7 6 6 6 6 5 5 5 4 3 3 3 2 2 2 3 3 3 3 3 4 4 4 4 4 4 4 3
5 5 5 5 5 5 5 5 5 5 5 4 4 5 4 4 4 4 3 3 3 3 2 2 1 1 1 1 1 1 1 2 2 2 3 3 3 3 3 3 2 2 2
4 3 3 2 3 3 3 3 3 2 2 2 2 2 2 2 2 1 2 2 2 2 2 1 1 0 -0 -0 -0 -1 -0 1 1 1 1 2 1 1 1 1 1 1 1
2 2 2 1 1 0 1 1 1 1 1 1 1 1 1 1 1 1 1 1 1 1 0 0 0 0 -0 -0 -1 -2 -1 -1 -1 -1 -1 -1 -0 -0 -0 -0 -0 -0 0
2 2 1 1 0 0 0 0 1 0 1 1 0 -0 0 -0 -0 -0 -0 -0 -0 -1 -1 -1 -1 -1 -2 -2 -2 -2 -2 -1 -0 -2 -2 -1 -1 -1 -1 -0 -0 -0 -0
1 1 1 0 -0 -0 -0 1 1 1 1 0 -0 -1 -1 -1 -1 -1 -1 -1 -1 -2 -2 -2 -2 -2 -2 -3 -2 -3 -3 -3 -2 -3 -3 -2 -3 -3 -2 -2 -2 -1 -2
1 0 -0 -0 -0 -1 -1 0 0 0 -0 -1 -1 -1 -1 -2 -2 -2 -1 -2 -2 -2 -3 -3 -3 -3 -3 -3 -3 -3 -3 -3 -3 -4 -4 -3 -4 -3 -3 -3 -2 -2 -2
0 0 -0 -1 -1 -1 -0 -0 -0 -1 -1 -1 -2 -2 -2 -2 -2 -3 -2 -2 -3 -3 -3 -3 -3 -3 -3 -3 -4 -4 -4 -4 -3 -4 -5 -5 -4 -4 -4 -4 -3 -4 -3
0 -0 -1 -1 -1 -1 -2 -1 -1 -1 -1 -2 -2 -2 -3 -2 -2 -3 -3 -3 -3 -4 -4 -3 -3 -3 -3 -4 -4 -4 -4 -5 -5 -4 -5 -5 -5 -5 -3 -4 -4 -3 -3
Height
858 859 860 861 862 863 864 865 866 866 867 867 868 868 867 867 867 866 866 867 866 867 867 867 866 866 866 865 866 865 865 865 865 866 867 867 866 867 866 865 866 867 867
856 857 858 859 861 861 862 863 864 864 864 864 864 865 865 864 864 864 864 864 864 864 864 864 864 865 865 865 865 865 864 864 865 866 866 866 866 867 868 867 867 867 867
854 855 857 858 859 860 860 861 861 861 861 861 860 861 861 861 860 861 861 861 861 860 860 861 861 862 863 863 863 864 863 864 864 864 865 865 866 864 866 868 868 868 868
851 852 853 854 856 857 857 858 858 857 858 858 857 857 857 857 857 857 857 857 857 856 856 856 857 858 860 861 862 862 862 862 863 864 864 864 864 865 864 866 867 868 868
848 849 850 851 853 853 853 854 854 854 854 853 853 853 853 853 853 853 852 852 852 852 851 852 853 854 855 857 858 859 859 860 860 861 862 863 864 864 863 864 865 866 867
845 846 846 848 849 849 848 849 849 849 849 849 849 847 847 847 847 847 846 846 846 847 847 847 848 849 851 852 853 854 856 856 857 858 860 861 861 863 863 863 863 864 865
841 842 842 843 843 843 843 844 845 845 844 844 845 842 840 840 840 841 841 840 840 841 842 842 843 844 845 847 848 850 851 852 853 854 854 857 859 860 861 862 862 863 864
837 838 838 838 839 838 838 839 839 840 839 839 841 841 838 836 835 835 836 836 836 836 837 837 837 838 839 840 841 843 846 848 849 850 850 850 852 856 859 860 862 862 862
831 831 832 833 833 833 833 833 834 834 834 834 835 837 837 833 833 832 832 833 832 832 833 833 833 832 833 834 835 837 839 842 844 846 847 846 847 848 851 856 858 861 861
827 827 828 828 828 828 828 828 829 829 829 829 830 831 831 832 833 832 831 830 830 829 829 829 829 829 829 829 830 832 833 835 837 840 841 842 843 843 849 851 853 852 854
824 824 824 824 824 823 823 823 824 823 824 824 824 825 826 827 829 830 829 828 827 827 828 827 827 826 826 826 826 827 828 829 831 833 835 836 838 839 839 843 846 850 849
822 822 821 821 820 820 819 819 819 818 819 819 818 819 820 821 822 824 826 826 826 825 824 824 824 823 822 823 823 823 823 824 825 827 828 830 831 833 834 836 839 840 844
819 819 818 818 817 817 816 815 814 814 813 814 814 814 815 816 817 819 821 822 824 824 823 822 820 821 820 820 820 820 820 821 822 823 825 824 825 827 830 832 835 832 835
817 816 816 815 814 813 812 812 811 810 810 809 810 810 811 813 814 816 817 818 820 821 822 821 819 818 819 819 819 819 819 818 817 818 819 819 820 820 823 827 830 830 829
814 814 813 812 811 810 809 809 810 809 808 808 808 807 808 809 811 812 814 815 816 817 819 818 818 817 817 817 817 816 816 815 814 814 813 814 814 816 817 821 823 828 831
812 811 811 809 809 808 807 807 808 808 808 808 808 808 808 809 809 811 812 813 814 815 816 816 816 816 815 815 814 813 813 813 812 812 809 810 811 811 815 820 821 825 827
810 809 810 809 808 807 807 807 807 807 807 807 807 807 807 808 810 811 811 812 813 814 814 814 815 814 814 813 812 811 811 811 811 810 810 809 809 811 813 818 820 824 825
809 809 809 808 808 807 807 807 807 808 808 808 808 808 808 809 810 811 811 811 812 812 813 813 813 813 813 812 811 810 810 810 810 811 811 811 811 812 814 816 819 820 823
809 808 809 808 808 807 807 807 807 808 809 811 811 810 810 811 811 811 811 811 811 811 812 812 812 812 812 812 811 809 809 809 809 809 810 810 810 811 812 814 816 818 819
807 807 808 809 809 808 808 807 807 809 810 812 813 813 813 813 813 813 813 813 813 812 812 811 811 811 812 812 810 809 809 808 809 809 809 808 808 808 809 810 812 813 814
806 807 808 808 810 811 811 809 807 809 811 813 815 815 815 816 816 815 815 815 814 813 812 811 811 811 812 812 811 810 810 810 810 810 809 808 808 808 809 809 809 810 810
807 807 810 809 812 811 812 811 808 810 812 813 815 817 818 817 817 817 816 816 815 814 812 811 812 811 812 812 812 811 811 811 811 811 810 808 807 806 806 805 805 805 805
809 808 810 811 812 811 811 812 811 811 813 815 816 818 818 817 816 816 816 815 814 813 813 812 812 812 812 812 812 812 811 811 812 811 809 807 805 804 803 802 801 800 801
809 809 811 812 813 812 813 814 814 816 816 817 818 818 818 817 817 816 815 814 814 813 813 812 812 812 811 811 812 811 811 811 810 809 808 806 804 803 801 799 797 797 797
810 810 812 813 812 812 815 816 815 816 817 819 819 819 819 817 818 816 815 814 813 813 812 812 811 811 811 811 811 810 810 810 809 808 807 807 804 801 799 798 796 796 795
809 811 812 811 812 814 816 816 815 816 817 817 819 819 819 819 818 816 815 814 813 812 811 810 810 809 808 808 808 808 808 809 809 808 807 807 805 804 800 797 796 795 794
Wind_Speed
9 7 8 9 10 10 10 10 10 10 10 10 10 11 12 11 11 11 11 10 9 9 11 10 9 7 6 5 5 4 4 3 3 3 2 1 2 2 4 5 5 5 5
12 11 10 10 12 12 11 11 11 11 11 11 12 13 13 13 12 13 13 12 12 12 15 14 11 10 8 8 7 7 6 5 4 4 4 3 2 1 1 2 3 4 5
15 15 14 13 13 13 13 14 15 15 14 14 14 14 14 15 15 16 16 16 15 15 17 17 15 13 13 10 10 9 9 8 7 6 6 5 5 5 3 3 3 4 4
15 17 18 17 15 15 16 17 17 18 19 18 18 18 18 18 19 19 20 20 19 18 18 19 19 17 16 14 12 12 11 10 10 9 8 8 7 6 5 5 4 4 4
16 17 19 19 17 18 19 19 20 20 20 20 22 22 22 22 23 23 24 24 24 23 21 20 20 21 21 18 15 14 14 14 13 12 11 10 9 8 8 7 7 6 6
19 20 22 23 22 22 23 23 23 22 23 22 22 24 24 25 26 26 27 29 29 27 26 24 22 23 24 23 20 17 16 15 16 15 13 12 12 11 10 10 10 9 8
20 20 22 23 24 25 25 24 23 23 23 23 16 16 21 20 21 21 22 25 28 29 27 26 25 24 25 25 25 22 19 18 18 19 17 15 14 13 12 12 12 11 11
24 25 25 25 25 24 24 24 24 18 19 21 8 4 4 9 15 19 18 19 20 20 22 23 23 25 25 25 26 27 25 22 20 20 21 20 18 16 15 13 13 13 12
19 21 22 23 24 24 25 25 25 23 16 17 18 9 2 4 3 11 13 13 13 15 14 13 14 14 19 23 25 27 29 27 24 21 20 21 21 20 17 16 15 14 15
12 12 13 15 17 18 19 21 21 22 20 16 15 18 21 11 3 2 4 8 11 13 15 14 14 13 13 17 19 23 27 29 28 25 22 19 18 18 17 17 16 18 17
8 9 11 13 14 14 15 17 19 19 21 21 19 12 13 15 16 7 2 6 7 7 15 14 14 15 14 15 16 18 20 23 27 25 26 25 23 18 16 16 21 24 21
5 5 5 7 8 9 10 13 15 17 19 20 20 19 19 8 7 7 4 7 6 9 12 13 13 10 10 11 12 13 14 15 18 22 27 28 27 26 27 27 25 25 23
6 8 9 9 9 9 9 8 10 14 16 19 20 19 19 20 16 11 6 2 3 2 4 9 7 9 9 11 11 12 12 12 14 17 23 27 25 24 26 26 26 25 24
6 8 9 10 11 11 10 8 7 9 10 13 14 13 12 10 11 11 6 5 2 6 5 6 5 6 6 8 10 11 13 12 11 13 18 23 27 25 25 23 20 12 12
5 7 8 8 8 8 7 5 5 5 4 4 4 6 8 8 8 8 8 8 5 2 3 3 2 2 7 9 12 13 14 14 13 13 16 20 21 21 14 20 20 15 12
3 4 4 4 4 3 3 3 4 4 5 3 1 1 2 1 0 1 2 2 4 6 2 4 3 6 8 9 11 11 10 10 9 12 17 14 14 14 14 9 9 10 13
2 2 2 1 2 2 2 3 4 5 5 4 3 2 2 2 2 2 1 1 0 2 3 2 3 5 8 9 8 7 6 7 7 5 15 8 10 9 8 10 13 16 19
2 1 0 1 2 3 5 6 7 8 8 7 6 5 3 1 1 0 1 1 0 1 2 2 2 5 5 7 6 4 4 4 4 5 5 3 3 4 8 11 12 13 17
2 2 2 2 3 4 6 8 8 9 9 9 9 8 6 4 5 4 4 4 4 3 1 0 1 4 3 6 4 4 4 4 5 8 12 13 13 14 13 14 14 14 15
5 4 3 3 4 5 7 8 10 11 13 13 13 12 11 10 9 8 8 7 5 4 3 3 2 2 3 4 6 7 7 7 7 6 7 8 9 11 11 14 15 14 14
6 7 7 8 7 7 8 12 14 14 14 14 13 13 14 14 12 10 8 7 5 4 3 3 2 2 3 4 5 5 4 5 4 6 7 6 6 7 9 10 11 13 15
8 10 10 11 11 11 11 11 14 14 13 12 13 10 8 6 6 6 5 8 8 5 4 2 2 2 2 3 4 5 4 4 2 5 9 9 11 11 13 15 17 19 20
12 13 13 12 12 12 12 12 14 14 13 12 12 10 8 7 5 5 5 3 4 5 4 3 3 2 2 2 3 3 4 3 3 8 9 8 8 9 8 12 12 13 12
13 13 13 13 13 12 11 12 11 11 11 11 10 8 7 7 6 5 4 4 4 6 6 5 5 3 2 3 2 4 4 6 7 7 6 4 6 9 10 10 10 8 11
14 13 13 13 14 13 9 9 9 8 8 7 5 5 5 6 3 3 4 4 2 2 2 0 2 3 4 5 5 7 5 5 5 2 4 3 5 11 8 3 3 3 3
14 12 12 12 11 11 7 6 6 6 6 4 3 3 2 2 1 2 3 3 2 1 1 3 4 4 5 4 5 5 4 2 2 3 1 4 5 7 6 4 4 10 9
Wind_Direction
240 245 239 238 237 238 245 254 261 268 274 276 279 284 285 286 292 287 291 290 271 238 247 253 260 266 269 252 240 231 230 230 197 198 188 151 117 118 126 130 128 121 112
247 248 250 248 246 248 252 258 265 274 278 277 278 283 286 288 288 287 288 284 273 259 250 252 250 247 248 251 249 245 233 232 221 213 204 192 168 143 138 139 136 136 132
251 250 252 253 255 257 261 263 267 273 277 280 281 283 284 286 287 287 286 285 277 265 259 256 249 246 246 250 252 248 242 240 234 225 220 210 203 184 179 181 166 159 149
251 250 252 256 259 261 263 266 270 273 275 276 280 283 283 283 283 284 283 280 278 272 264 258 257 248 245 245 251 247 244 235 237 236 231 223 215 208 192 192 190 183 174
253 255 257 261 264 265 266 269 270 270 272 274 277 281 282 282 283 281 280 277 273 271 269 266 260 255 250 245 247 252 245 237 231 233 236 233 232 221 210 205 201 198 194
262 263 265 266 266 266 268 269 268 270 270 275 278 279 282 283 280 277 279 279 273 270 269 268 264 256 252 250 246 246 248 243 232 227 233 236 232 231 226 220 216 213 211
259 262 266 269 266 264 267 269 270 269 272 272 275 281 282 288 283 279 287 285 276 271 271 271 268 264 259 252 252 247 246 246 243 230 224 225 233 234 231 229 227 223 222
261 263 263 265 265 266 267 266 264 261 265 267 246 263 284 288 275 266 269 281 283 283 281 279 273 269 265 259 253 252 249 246 249 247 230 221 218 225 236 234 237 232 227
258 259 261 262 264 264 263 266 266 259 252 262 256 236 257 254 341 296 287 274 269 282 292 294 300 289 270 264 261 254 252 252 247 252 255 237 224 218 218 230 232 243 242
262 263 261 258 258 262 264 265 266 263 256 243 249 248 242 248 238 314 283 284 287 283 293 304 300 294 292 281 269 263 258 256 251 246 249 249 250 232 232 227 230 231 236
267 264 262 262 266 266 265 263 265 261 260 253 242 237 238 243 252 227 254 254 275 287 300 306 306 298 291 293 284 279 270 266 256 249 247 245 240 245 226 239 243 237 227
277 276 285 284 286 286 279 273 268 264 263 264 247 246 239 214 208 197 208 233 238 284 300 298 294 295 295 297 295 295 291 278 265 250 249 252 244 246 241 239 242 229 233
272 279 288 289 287 287 293 288 275 270 262 258 256 247 251 252 248 244 226 206 234 276 298 300 300 305 304 299 299 296 293 290 283 270 261 261 245 238 245 241 247 240 178
288 295 296 292 288 286 286 287 287 274 266 254 245 240 241 245 255 249 237 182 197 223 251 260 307 6 16 1 344 334 320 304 280 272 270 270 262 255 245 240 230 193 170
283 297 300 299 291 286 281 269 255 261 243 221 205 191 208 212 230 243 248 237 192 225 227 229 243 325 336 321 312 311 311 305 297 289 273 268 263 266 263 246 190 205 229
285 304 307 313 314 304 284 227 215 224 233 235 163 160 182 130 146 258 247 245 232 215 217 213 222 298 311 316 313 316 315 317 328 323 297 267 255 229 199 208 210 246 278
285 296 302 341 30 57 94 117 141 170 205 203 171 139 76 356 295 248 339 285 159 204 226 210 251 320 332 327 327 328 332 334 346 350 46 128 132 158 193 243 271 263 272
256 258 223 108 93 100 117 119 116 112 110 110 112 104 93 191 183 43 217 249 67 292 250 241 299 330 327 347 353 357 359 326 311 294 309 333 307 281 264 257 252 263 265
184 151 130 110 116 117 118 123 125 118 110 99 94 98 96 98 91 85 85 83 74 61 67 167 5 4 354 6 9 20 354 331 302 284 275 277 282 273 276 271 270 265 257
145 126 99 80 86 113 119 120 120 113 105 99 94 88 78 76 79 75 75 72 72 81 83 93 70 36 29 5 40 34 21 6 347 326 300 288 278 275 270 261 255 252 247
124 116 112 104 93 97 108 121 118 112 112 109 105 97 92 85 70 71 76 70 63 71 78 69 77 65 36 20 23 13 18 357 350 349 341 331 314 287 273 267 265 263 264
135 129 118 112 105 98 111 118 120 119 121 125 121 117 119 113 100 78 86 66 52 38 37 90 62 69 45 20 22 26 22 17 358 357 342 314 305 296 289 279 276 273 271
144 132 126 122 113 106 107 110 114 116 117 117 116 116 105 90 89 85 86 86 77 60 58 73 89 77 63 22 9 4 13 6 327 322 327 304 311 301 303 290 279 275 272
146 141 139 132 124 110 108 113 113 112 113 111 112 108 100 83 65 66 69 80 91 81 63 75 84 74 44 348 318 328 329 317 310 314 327 290 322 314 318 308 291 292 276
153 145 141 139 127 116 120 123 118 112 113 115 111 102 92 102 84 31 43 64 78 126 135 255 305 286 270 275 296 290 300 314 323 319 325 293 325 324 318 331 357 355 347
163 161 155 146 136 135 139 132 124 129 128 120 125 143 114 48 38 315 357 15 27 16 326 320 309 296 292 280 276 283 280 264 277 289 271 327 322 354 324 296 316 305 318